CW1663 Weather Reports


time (UTC)temp
F
wind
direction
speed
knots
gust
knots
rain 1hr
in
rain 24hr
in
rain mn
in
humidity
%
barometer
mb
20260507034804 47 46 0.9 2.6 0.00 0.00 0.00 89 1014.5
20260507033804 47 51 0.9 2.6 0.00 0.00 0.00 89 1014.4
20260507032306 47 32 0.9 2.6 0.00 0.00 0.00 89 1014.4
20260507030304 47 34 0.0 0.0 0.00 0.00 0.00 89 1014.3
20260507025804 47 34 0.0 0.0 0.00 0.00 0.00 89 1014.3
20260507025306 47 34 0.0 0.9 0.00 0.00 0.00 89 1014.3
20260507022804 47 33 0.0 0.9 0.00 0.00 0.00 89 1014.2
20260507021804 47 33 0.9 1.7 0.00 0.00 0.00 89 1014.2
20260507020304 47 33 0.0 0.9 0.00 0.00 0.00 89 1014.1
20260507015804 47 33 0.9 2.6 0.00 0.00 0.00 89 1014.1
20260507015306 47 34 0.0 0.9 0.00 0.00 0.00 89 1014.2
20260507013304 47 34 0.0 1.7 0.00 0.00 0.00 89 1014.1
20260507012804 47 34 0.9 2.6 0.00 0.00 0.00 89 1014.1
20260507011804 47 40 0.9 2.6 0.00 0.00 0.00 89 1014.1
20260507005305 47 73 0.9 2.6 0.00 0.00 0.00 88 1014.1
20260507004804 47 74 0.9 2.6 0.00 0.00 0.00 88 1014.1
20260507003304 47 74 0.0 0.9 0.00 0.00 0.00 88 1014.2
20260507002804 47 74 0.9 1.7 0.00 0.00 0.00 88 1014.2
20260507001804 47 74 0.0 2.6 0.00 0.00 0.00 88 1014.3
20260506235804 48 76 0.9 1.7 0.00 0.00 0.00 87 1014.3
20260506235306 48 76 0.0 4.3 0.00 0.00 0.00 87 1014.3
20260506234804 48 46 0.9 1.7 0.00 0.00 0.00 87 1014.3
20260506233304 48 42 0.0 0.9 0.00 0.00 0.00 87 1014.2
20260506232804 48 42 0.9 1.7 0.00 0.00 0.00 87 1014.2
20260506232306 48 42 0.9 1.7 0.00 0.00 0.00 87 1014.1
20260506231304 48 42 0.0 0.0 0.00 0.00 0.00 87 1014.1
20260506230813 48 42 0.0 0.9 0.00 0.00 0.00 87 1014.1
20260506222306 48 42 0.0 0.9 0.00 0.00 0.00 85 1013.9
20260506221804 48 42 0.9 1.7 0.00 0.00 0.00 85 1013.9
20260506215804 49 42 0.0 1.7 0.00 0.00 0.00 85 1013.8
20260506214304 49 38 0.9 2.6 0.00 0.00 0.00 84 1013.7
20260506213804 49 38 0.9 2.6 0.00 0.00 0.00 84 1013.7
20260506212306 49 38 0.0 2.6 0.00 0.00 0.00 84 1013.7
20260506210804 49 30 0.0 0.0 0.00 0.00 0.00 84 1013.5
20260506210304 49 44 0.0 0.0 0.00 0.00 0.00 84 1013.5
20260506205804 49 42 0.0 0.0 0.00 0.00 0.00 84 1013.5
20260506202804 49 51 0.0 0.0 0.00 0.00 0.00 83 1013.2
20260506201804 49 57 1.7 2.6 0.00 0.00 0.00 83 1013.2
20260506201304 49 56 0.9 2.6 0.00 0.00 0.00 83 1013.1
20260506195306 49 57 1.7 2.6 0.00 0.00 0.00 82 1013.0
20260506194804 49 46 1.7 4.3 0.00 0.00 0.00 82 1013.0
20260506194304 49 46 1.7 2.6 0.00 0.00 0.00 81 1012.9
20260506193804 50 48 1.7 4.3 0.00 0.00 0.00 81 1012.9
20260506193304 50 33 1.7 4.3 0.00 0.00 0.00 80 1012.8
20260506192804 50 14 0.9 2.6 0.00 0.00 0.00 80 1012.8
20260506192305 50 18 1.7 4.3 0.00 0.00 0.00 80 1012.8
20260506191304 50 8 1.7 2.6 0.00 0.00 0.00 80 1012.7
20260506190304 50 60 2.6 5.2 0.00 0.00 0.00 80 1012.7
20260506184804 50 53 2.6 4.3 0.00 0.00 0.00 80 1012.6
20260506183303 50 32 1.7 4.3 0.00 0.00 0.00 80 1012.4
20260506182804 50 26 1.7 4.3 0.00 0.00 0.00 80 1012.4
20260506182306 50 47 2.6 7.0 0.00 0.00 0.00 79 1012.4
20260506181804 50 45 2.6 6.1 0.00 0.00 0.00 79 1012.4
20260506175803 51 48 2.6 6.1 0.00 0.00 0.00 79 1012.1
20260506175306 51 39 2.6 4.3 0.00 0.00 0.00 79 1012.0
20260506174304 51 53 3.5 7.8 0.00 0.00 0.00 79 1012.0
20260506173804 51 61 2.6 8.7 0.00 0.00 0.00 78 1012.0
20260506173303 51 63 3.5 8.7 0.00 0.00 0.00 78 1011.9
20260506170804 53 34 2.6 10.4 0.00 0.00 0.00 74 1011.8
20260506165804 54 29 2.6 4.3 0.00 0.00 0.00 72 1011.7
20260506163804 54 345 2.6 7.0 0.00 0.00 0.00 70 1011.6
20260506162804 54 29 2.6 7.0 0.00 0.00 0.00 69 1011.6
20260506161304 54 24 4.3 7.8 0.00 0.00 0.00 69 1011.7
20260506160804 54 342 4.3 11.3 0.00 0.00 0.00 69 1011.7
20260506160305 53 329 6.1 11.3 0.00 0.00 0.00 69 1011.7
20260506154804 54 25 5.2 10.4 0.00 0.00 0.00 69 1011.8
20260506154304 54 7 3.5 7.8 0.00 0.00 0.00 69 1011.8
20260506153304 54 353 3.5 7.0 0.00 0.00 0.00 69 1011.8
20260506152305 54 354 3.5 7.8 0.00 0.00 0.00 68 1011.6
20260506151804 55 34 4.3 10.4 0.00 0.00 0.00 68 1011.6
20260506145804 55 40 2.6 10.4 0.00 0.00 0.00 68 1011.7
20260506144804 54 52 3.5 10.4 0.00 0.00 0.00 69 1011.7
20260506143804 55 6 4.3 10.4 0.00 0.00 0.00 67 1011.7
20260506143304 55 20 3.5 7.0 0.00 0.00 0.00 67 1011.7
20260506142804 55 22 5.2 10.4 0.00 0.00 0.00 66 1011.7
20260506141804 56 7 5.2 13.0 0.00 0.00 0.00 65 1011.7
20260506141304 56 332 5.2 10.4 0.00 0.00 0.00 64 1011.5
20260506140804 56 350 5.2 10.4 0.00 0.00 0.00 64 1011.5
20260506140304 55 11 3.5 10.4 0.00 0.00 0.00 65 1011.6
20260506135804 55 23 6.1 10.4 0.00 0.00 0.00 65 1011.6
20260506134304 55 345 4.3 10.4 0.00 0.00 0.00 64 1011.7
20260506133304 56 13 4.3 10.4 0.00 0.00 0.00 63 1011.8
20260506132804 55 347 4.3 8.7 0.00 0.00 0.00 63 1011.8
20260506132307 54 24 4.3 8.7 0.00 0.00 0.00 64 1011.7
20260506125804 55 5 2.6 10.4 0.00 0.00 0.00 63 1011.8
20260506124804 55 337 4.3 10.4 0.00 0.00 0.00 62 1011.6
20260506121804 55 44 3.5 8.7 0.00 0.00 0.00 62 1011.6
20260506121304 55 24 5.2 10.4 0.00 0.00 0.00 65 1011.7
20260506115804 54 336 5.2 10.4 0.00 0.00 0.00 65 1011.7
20260506114804 54 1 5.2 10.4 0.00 0.00 0.00 64 1011.7
20260506114304 54 321 3.5 8.7 0.00 0.00 0.00 63 1011.7
20260506113804 54 32 1.7 7.8 0.00 0.00 0.00 63 1011.7
20260506113304 54 335 4.3 10.4 0.00 0.00 0.00 61 1011.6
20260506111303 53 339 5.2 10.4 0.00 0.00 0.00 64 1011.6
20260506105804 53 329 7.0 11.3 0.00 0.00 0.00 65 1011.6
20260506104804 53 23 5.2 11.3 0.00 0.00 0.00 65 1011.7
20260506103804 53 11 4.3 11.3 0.00 0.00 0.00 67 1011.8
20260506103304 53 27 6.1 11.3 0.00 0.00 0.00 67 1011.7
20260506102305 53 3 6.1 13.9 0.00 0.00 0.00 66 1011.6
20260506100803 53 33 5.2 11.3 0.00 0.00 0.00 68 1011.6
20260506095804 53 337 5.2 8.7 0.00 0.00 0.00 68 1011.6
20260506095305 53 12 5.2 12.2 0.00 0.00 0.00 69 1011.7
20260506094804 52 314 2.6 10.4 0.00 0.00 0.00 69 1011.7
20260506094304 52 39 4.3 10.4 0.00 0.00 0.00 69 1011.8
20260506092804 51 344 6.1 13.9 0.00 0.00 0.00 68 1011.7
20260506092306 52 6 4.3 10.4 0.00 0.00 0.00 70 1011.7
20260506091304 52 20 4.3 10.4 0.00 0.00 0.00 74 1011.7
20260506090304 50 339 4.3 7.8 0.00 0.00 0.00 77 1011.7
20260506085804 49 7 5.2 11.3 0.00 0.00 0.00 77 1011.7
20260506085306 49 23 4.3 10.4 0.00 0.00 0.00 77 1011.5
20260506084304 49 332 4.3 10.4 0.00 0.00 0.00 76 1011.5
20260506083304 50 298 2.6 8.7 0.00 0.00 0.00 78 1011.4
20260506082804 50 19 4.3 8.7 0.00 0.00 0.00 77 1011.4
20260506081304 48 331 5.2 8.7 0.00 0.00 0.00 79 1011.5
20260506080306 48 316 6.1 11.3 0.00 0.00 0.00 78 1011.5
20260506073304 48 345 2.6 7.8 0.00 0.00 0.00 79 1011.4
20260506072306 48 344 6.1 12.2 0.00 0.00 0.00 80 1011.3
20260506070804 47 328 4.3 10.4 0.00 0.00 0.00 82 1011.3
20260506070304 47 336 4.3 7.8 0.00 0.00 0.00 82 1011.2
20260506060804 45 12 2.6 7.8 0.00 0.00 0.00 86 1011.2
20260506060303 45 354 5.2 11.3 0.00 0.00 0.00 87 1011.0
20260506051304 45 16 3.5 10.4 0.00 0.01 0.00 87 1011.0
20260506050304 45 356 4.3 8.7 0.00 0.01 0.00 88 1010.9
20260506043804 46 6 5.2 10.4 0.00 0.01 0.00 88 1010.7
20260506043304 46 356 4.3 10.4 0.00 0.01 0.00 88 1010.6
20260506042804 46 6 3.5 10.4 0.00 0.01 0.00 88 1010.6
20260506041804 46 13 3.5 7.8 0.00 0.01 0.00 88 1010.6
20260506041304 46 349 2.6 7.8 0.00 0.01 0.00 88 1010.5
20260506040804 46 2 2.6 7.0 0.00 0.01 0.00 87 1010.5
20260506040304 46 48 2.6 7.8 0.00 0.01 0.00 87 1010.5